Location: Unspecified
(0.0000°N, 0.0000°E)
Time: 08:58:37
(UTC+02:00)

ISS - All Passes

Search period start: 26 June 2017 00:00
Search period end: 06 July 2017 00:00
Orbit: 401 x 408 km, 51.6° (Epoch: 26 June)

Date Brightness Start Highest point End Pass type
(mag) Time Alt. Az. Time Alt. Az. Time Alt. Az.
26 Jun - 07:30:49 10° SW 07:33:54 41° NW 07:37:00 10° NNE visible
26 Jun - 19:04:33 10° NW 19:07:49 76° SW 19:11:05 10° SSE daylight
27 Jun - 06:38:35 10° SSW 06:41:48 60° SE 06:45:00 10° NE visible
27 Jun - 18:12:41 10° NNW 18:15:42 34° NE 18:18:43 10° ESE daylight
28 Jun - 05:47:08 10° S 05:49:40 21° SE 05:52:12 10° ENE visible
28 Jun - 07:24:54 10° WNW 07:25:57 11° NW 07:26:59 10° NW visible
28 Jun - 17:21:52 10° NNE 17:23:33 13° NE 17:25:15 10° E daylight
28 Jun - 18:57:30 10° W 18:59:50 18° SW 19:02:10 10° S daylight
29 Jun - 06:30:55 10° WSW 06:33:46 28° NW 06:36:38 10° N visible
29 Jun - 18:04:29 10° NW 18:07:40 49° SW 18:10:52 10° SSE daylight
30 Jun - 05:38:23 10° SW 05:41:38 88° NW 05:44:52 10° NE visible
30 Jun - 17:12:19 10° NNW 17:15:30 51° NE 17:18:42 10° SE daylight
01 Jul - 04:46:35 10° S 04:49:28 29° SE 04:52:20 10° ENE night (unlit)
01 Jul - 16:20:57 10° N 16:23:20 18° NE 16:25:42 10° E daylight
01 Jul - 17:57:59 10° W 17:59:37 13° SW 18:01:14 10° SSW daylight
02 Jul - 03:56:04 10° SSE 03:57:16 12° SE 03:58:28 10° ESE night (unlit)
02 Jul - 05:31:03 10° WSW 05:33:33 20° NW 05:36:01 10° N visible
02 Jul - 17:04:24 10° WNW 17:07:24 33° SW 17:10:25 10° SSE daylight
03 Jul - 04:38:09 10° SW 04:41:21 58° NW 04:44:32 10° NNE night (unlit)
03 Jul - 16:11:56 10° NNW 16:15:12 78° NE 16:18:30 10° SE daylight
04 Jul - 03:46:03 10° SSW 03:49:09 43° SE 03:52:15 10° NE night (unlit)
04 Jul - 15:20:13 10° N 15:23:00 26° NE 15:25:48 10° ESE daylight
05 Jul - 02:54:49 10° SSE 02:56:55 16° SE 02:59:01 10° E night (unlit)
05 Jul - 04:31:18 10° W 04:33:11 15° NW 04:35:05 10° NNW night (unlit)
05 Jul - 14:30:21 10° NE 14:30:45 10° NE 14:31:09 10° ENE daylight
05 Jul - 16:04:20 10° WNW 16:07:02 23° SW 16:09:44 10° S daylight
